Date String (YYYY-MM-DD hh:mm:ss) UTC,Instrument flags,absolute air pressure of the measurement (hPa),sample flow rate (lpm),inlet stack bypass flow (lpm),air temperature of the measurement (°C),ambient temperature measured by the external sensor (°C),aerosol sample conditioner tube jacket temperature (°C),OPC LED temperature (°C),internal box temperature (°C),relative humidity of the measurement (%),span deviation,mass concentration of particles derived from Lorenz-Mie calculation of OPC scattering (μg/m³),mass concentration of particles derived from Lorenz-Mie calculation of OPC scattering (μg/m³),mass concentration of particles derived from Lorenz-Mie calculation of OPC scattering (μg/m³)
DateTimeUTC,F1_M11,P_M11,Q1_M11,Q2_M11,T1_M11,T2_M11,T3_M11,T4_M11,T5_M11,U1_M11,ZSPAN_M11,X2_M11,X0_M11,X1_M11
2023-08-26 09:00:00,SystemResetWarning,0839.7,5.04,000.00,030.8,025.2,000.0,038.8,030.4,35.0,-000.3,0004.68,0008.37,0004.22
2023-08-26 09:01:00,SystemResetWarning,0839.8,4.97,000.00,031.0,025.6,000.0,038.8,030.6,34.7,-000.4,0004.70,0008.07,0004.28
2023-08-26 09:02:00,SystemResetWarning,0839.8,5.00,000.00,031.0,026.0,000.0,038.9,030.6,34.4,-000.7,0004.70,0007.95,0004.32
2023-08-26 09:03:00,SystemResetWarning,0839.8,5.02,000.00,031.1,026.2,000.0,038.9,030.7,34.2,-000.6,0004.74,0008.14,0004.38
2023-08-26 09:04:00,SystemResetWarning,0839.8,4.99,000.00,031.1,026.5,000.0,038.9,030.7,34.2,-000.2,0004.77,0008.17,0004.41
2023-08-26 09:05:00,SystemResetWarning,0839.7,4.99,000.00,031.0,026.7,000.0,039.0,030.7,34.2,0000.0,0004.76,0008.17,0004.40
2023-08-26 09:06:00,SystemResetWarning,0839.7,4.99,000.00,031.0,026.9,000.0,039.0,030.7,34.3,-000.2,0004.73,0008.13,0004.38
2023-08-26 09:07:00,SystemResetWarning,0839.8,5.01,000.00,031.0,027.0,000.0,039.0,030.7,34.4,-000.4,0004.73,0007.94,0004.36
2023-08-26 09:08:00,SystemResetWarning,0839.8,5.01,000.00,031.0,027.1,000.0,039.0,030.8,34.2,-000.7,0004.73,0007.69,0004.35
2023-08-26 09:09:00,SystemResetWarning,0839.8,4.99,000.00,030.9,027.2,000.0,039.0,030.8,34.4,-000.9,0004.73,0007.71,0004.34
2023-08-26 09:10:00,SystemResetWarning,0839.8,4.99,000.00,030.9,027.3,000.0,039.0,030.8,34.4,-001.0,0004.77,0007.83,0004.35
2023-08-26 09:11:00,SystemResetWarning,0839.8,5.00,000.00,030.8,027.4,000.0,039.0,030.8,34.4,-001.0,0004.82,0007.84,0004.39
2023-08-26 09:12:00,SystemResetWarning,0839.8,5.00,000.00,030.8,027.4,000.0,039.0,030.8,34.4,-000.8,0004.86,0007.98,0004.42
2023-08-26 09:13:00,SystemResetWarning,0839.8,5.01,000.00,030.8,027.5,000.0,039.0,030.9,34.7,-001.0,0004.93,0008.08,0004.46
2023-08-26 09:14:00,SystemResetWarning,0839.8,5.01,000.00,030.7,027.5,000.0,039.0,030.9,34.7,-001.0,0004.99,0008.00,0004.51
2023-08-26 09:15:00,SystemResetWarning,0839.8,4.99,000.00,030.7,027.5,000.0,039.0,030.9,34.8,-001.2,0005.08,0008.13,0004.55
2023-08-26 09:16:00,SystemResetWarning,0839.8,4.99,000.00,030.7,027.6,000.0,039.0,030.9,34.8,-001.6,0005.14,0008.26,0004.59
2023-08-26 09:17:00,SystemResetWarning,0839.8,4.99,000.00,030.6,027.6,000.0,039.0,030.9,34.7,-001.2,0005.25,0008.56,0004.67
2023-08-26 09:18:00,SystemResetWarning,0839.7,5.01,000.00,030.6,027.6,000.0,039.0,030.9,34.7,-001.3,0005.30,0008.58,0004.73
2023-08-26 09:19:00,SystemResetWarning,0839.8,5.01,000.00,030.6,027.7,000.0,039.0,030.9,34.8,-001.1,0005.34,0008.57,0004.78
2023-08-26 09:20:00,SystemResetWarning,0839.7,4.99,000.00,030.5,027.7,000.0,039.0,030.9,34.8,-001.3,0005.42,0009.14,0004.84
2023-08-26 09:21:00,SystemResetWarning,0839.8,5.00,000.00,030.5,027.7,000.0,038.9,030.9,34.8,-001.6,0005.45,0009.22,0004.88
2023-08-26 09:22:00,SystemResetWarning,0839.8,4.99,000.00,030.5,027.4,000.0,038.9,030.9,34.9,-001.8,0005.48,0009.28,0004.91
2023-08-26 09:23:00,SystemResetWarning,0839.7,5.00,000.00,030.5,025.7,000.0,038.7,030.8,34.9,-002.1,0005.50,0009.19,0004.96
2023-08-26 09:24:00,SystemResetWarning,0839.7,5.00,000.00,030.4,024.7,000.0,038.5,030.6,34.8,-001.7,0005.51,0009.18,0005.00
2023-08-26 09:25:00,SystemResetWarning,0839.7,5.01,000.00,030.2,024.6,000.0,038.5,030.2,35.4,-001.6,0005.53,0009.21,0005.04
2023-08-26 09:26:00,SystemResetWarning,0839.7,5.01,000.00,030.2,024.9,000.0,038.5,030.2,35.4,-002.0,0005.54,0009.11,0005.09
2023-08-26 09:27:00,SystemResetWarning,0839.7,5.01,000.00,030.4,025.3,000.0,038.5,030.4,34.9,-002.6,0005.59,0009.12,0005.13
2023-08-26 09:28:00,SystemResetWarning,0839.7,4.99,000.00,030.6,025.7,000.0,038.5,030.6,34.5,-002.8,0005.58,0008.94,0005.14
2023-08-26 09:29:00,SystemResetWarning,0839.7,4.99,000.00,030.7,026.1,000.0,038.5,030.6,34.4,-002.5,0005.59,0008.94,0005.18
2023-08-26 09:30:00,SystemResetWarning,0839.7,5.01,000.00,030.7,026.4,000.0,038.6,030.6,34.3,-002.2,0005.62,0009.16,0005.20
2023-08-26 09:31:00,SystemResetWarning,0839.7,5.02,000.00,030.7,026.6,000.0,038.6,030.6,34.3,-001.4,0005.61,0008.80,0005.21
2023-08-26 09:32:00,SystemResetWarning,0839.7,4.99,000.00,030.7,026.8,000.0,038.7,030.7,34.2,-000.9,0005.59,0008.66,0005.22
2023-08-26 09:33:00,SystemResetWarning,0839.7,5.00,000.00,030.7,026.9,000.0,038.7,030.7,34.2,-000.9,0005.60,0008.74,0005.21
2023-08-26 09:34:00,SystemResetWarning,0839.6,5.00,000.00,030.7,027.1,000.0,038.8,030.7,34.2,-000.8,0005.62,0008.85,0005.20
2023-08-26 09:35:00,SystemResetWarning,0839.6,5.00,000.00,030.7,027.2,000.0,038.8,030.7,34.3,-001.0,0005.61,0008.86,0005.19
2023-08-26 09:36:00,SystemResetWarning,0839.5,5.00,000.00,030.7,027.3,000.0,038.8,030.7,34.3,-001.8,0005.58,0008.78,0005.18
2023-08-26 09:37:00,SystemResetWarning,0839.5,4.99,000.00,030.6,027.3,000.0,038.8,030.7,34.3,-001.9,0005.56,0008.79,0005.16
2023-08-26 09:38:00,SystemResetWarning,0839.5,4.99,000.00,030.6,027.4,000.0,038.8,030.8,34.4,-001.2,0005.55,0008.79,0005.14
2023-08-26 09:39:00,SystemResetWarning,0839.5,4.99,000.00,030.6,027.5,000.0,038.8,030.8,34.6,-000.7,0005.53,0009.09,0005.14
2023-08-26 09:40:00,SystemResetWarning,0839.5,4.99,000.00,030.6,027.5,000.0,038.9,030.8,34.6,-001.1,0005.54,0009.40,0005.14
2023-08-26 09:41:00,SystemResetWarning,0839.5,5.00,000.00,030.5,027.6,000.0,038.9,030.8,34.6,-001.3,0005.53,0009.14,0005.14
2023-08-26 09:42:00,SystemResetWarning,0839.5,5.00,000.00,030.5,027.6,000.0,038.9,030.8,34.7,-001.7,0005.54,0009.14,0005.14
2023-08-26 09:43:00,SystemResetWarning,0839.5,5.00,000.00,030.5,027.7,000.0,038.9,030.9,34.8,-001.7,0005.56,0009.17,0005.16
2023-08-26 09:44:00,SystemResetWarning,0839.5,5.00,000.00,030.5,027.7,000.0,038.8,030.9,34.8,-001.4,0005.56,0009.08,0005.18
2023-08-26 09:45:00,SystemResetWarning,0839.5,5.00,000.00,030.4,027.7,000.0,038.8,030.9,34.8,-001.1,0005.55,0009.41,0005.19
2023-08-26 09:46:00,SystemResetWarning,0839.5,5.01,000.00,030.4,027.8,000.0,038.8,030.9,35.0,-001.1,0005.56,0009.92,0005.18
2023-08-26 09:47:00,SystemResetWarning,0839.4,5.00,000.00,030.4,027.6,000.0,038.8,030.9,34.9,-001.1,0005.57,0010.23,0005.18
2023-08-26 09:48:00,SystemResetWarning,0839.4,4.99,000.00,030.4,025.9,000.0,038.6,030.7,34.8,-000.4,0005.58,0010.23,0005.19
2023-08-26 09:49:00,SystemResetWarning,0839.2,5.00,000.00,030.3,024.8,000.0,038.5,030.5,35.0,-001.0,0005.58,0010.21,0005.21
2023-08-26 09:50:00,SystemResetWarning,0839.2,5.02,000.00,030.2,024.7,000.0,038.5,030.2,35.2,-001.8,0005.61,0009.99,0005.24
2023-08-26 09:51:00,SystemResetWarning,0839.2,5.00,000.00,030.3,025.0,000.0,038.5,030.2,35.2,-001.6,0005.62,0009.58,0005.26
2023-08-26 09:52:00,SystemResetWarning,0839.2,4.99,000.00,030.5,025.4,000.0,038.5,030.4,34.7,-001.5,0005.65,0009.65,0005.29
2023-08-26 09:53:00,SystemResetWarning,0839.2,4.99,000.00,030.6,025.7,000.0,038.5,030.6,34.4,-001.7,0005.67,0009.74,0005.30
2023-08-26 09:54:00,SystemResetWarning,0839.2,5.02,000.00,030.7,026.1,000.0,038.5,030.6,34.2,-002.1,0005.72,0009.77,0005.35
2023-08-26 09:55:00,SystemResetWarning,0839.2,4.99,000.00,030.8,026.4,000.0,038.6,030.6,34.2,-002.6,0005.74,0009.72,0005.38
2023-08-26 09:56:00,SystemResetWarning,0839.2,4.99,000.00,030.8,026.6,000.0,038.6,030.6,34.1,-003.0,0005.79,0009.52,0005.42
2023-08-26 09:57:00,SystemResetWarning,0839.2,5.00,000.00,030.8,026.8,000.0,038.7,030.7,34.2,-003.1,0005.84,0009.00,0005.48
2023-08-26 09:58:00,SystemResetWarning,0839.2,5.00,000.00,030.7,027.0,000.0,038.7,030.7,34.3,-002.8,0005.86,0008.63,0005.51
2023-08-26 09:59:00,SystemResetWarning,0839.2,5.01,000.00,030.7,027.2,000.0,038.8,030.7,34.3,-003.0,0005.88,0008.73,0005.52
